Regional Weather Roundup
Issued by NWS

Home | Current Version | Previous Version | Text Only | Print | Product List | Glossary On
Versions: 1 2 3 4 5 6 7 8 9 10 11 12 13 14 15 16 17 18 19 20 21 22 23 24 25 26 27 28 29 30 31 32 33 34 35 36 37 38 39 40 41 42 43 44 45 46 47 48 49 50
323
ASUS42 KFFC 260310
RWRGA
WEATHER ROUNDUP FOR GEORGIA
NATIONAL WEATHER SERVICE PEACHTREE CITY GA
1100 PM EDT SAT MAR 25 2017

NOTE: "FAIR" INDICATES FEW OR NO CLOUDS BELOW 12,000 FEET WITH NO
SIGNIFICANT WEATHER AND/OR OBSTRUCTIONS TO VISIBILITY.

* = USE WITH CAUTION. THE STATIONS MARKED WITH AN ASTERISK MAY NOT
REPORT WEATHER SUCH AS PRECIPITATION, FOG, OR THUNDER AND ARE NOT
QUALITY CONTROLLED BY NWS.

THE REMARK "TC" DENOTES TEMPERATURE READING IN DEGREES CELSIUS.

GAZ001>058-260400-
NORTH GEORGIA

CITY           SKY/WX    TMP DP  RH WIND       PRES   REMARKS
ATLANTA        CLOUDY    68  50  52 SE8       30.11R
ATHENS         CLOUDY    65  52  62 VRB5      30.13F
CHAMBLEE       PTCLDY    66  48  52 VRB5      30.11R
PEACHTREE CITY CLOUDY    66  52  60 SE7       30.10S
ROME           CLOUDY    65  55  70 SW6       30.08R
WEST ATLANTA   CLOUDY    69  48  47 SE6       30.10R
GAINESVILLE    CLOUDY    64  50  60 E7        30.14F
CARTERSVILLE   CLOUDY    68  49  50 SE6       30.08S


CITY           SKY/WX    TMP DP  RH WIND       PRES   REMARKS
DALTON*        CLOUDY    68  52  56 SE9       30.07F
MARIETTA       MOCLDY    68  49  51 SE13      30.10S
KENNESAW*      MOCLDY    66  48  52 SE7       30.08F
CANTON*        CLOUDY    64  43  45 E8        30.12S
$$

GAZ059>098-102>109-260400-
CENTRAL GEORGIA

CITY           SKY/WX    TMP DP  RH WIND       PRES   REMARKS
AUGUSTA-BUSH   PTCLDY    67  54  63 SE8       30.19S
AUGUSTA-DANIEL PTCLDY    66  51  58 SE9       30.20S
COLUMBUS       LGT RAIN  67  58  72 W16G24    30.11R
MACON          PTCLDY    68  53  58 SE10      30.13R
ROBINS AFB     PTCLDY    69  55  61 SE10      30.12R


CITY           SKY/WX    TMP DP  RH WIND       PRES   REMARKS
LAGRANGE*      RAIN      64  64 100 W6        30.12R
SYLVANIA*      PTCLDY   N/A N/A N/A SE3       30.22S
MILLEDGEVILLE* PTCLDY    68  55  64 SE5       30.14S
$$

GAZ099>101-110>166-260400-
SOUTH GEORGIA

CITY           SKY/WX    TMP DP  RH WIND       PRES   REMARKS
SAVANNAH       CLEAR     62  55  77 SE3       30.21S
VALDOSTA       CLOUDY    67  56  67 SE3       30.14R
ALMA           PTCLDY    65  58  78 E6        30.17S
ST SIMONS      CLEAR     65  59  81 SE6       30.19R
FT STEWART     CLEAR     61  55  82 E3        30.18S
ALBANY         PTCLDY    66  55  67 CALM      30.15R
HUNTER AFB     CLEAR     61  58  89 SE5       30.19S
MOODY AFB      CLOUDY    69  57  65 SE12      30.13S
BRUNSWICK      CLEAR     66  61  82 SE5       30.21R


CITY           SKY/WX    TMP DP  RH WIND       PRES   REMARKS
BAINBRIDGE*    PTCLDY    64  55  72 SW3       30.13R
MOULTRIE*      PTCLDY    66  55  68 CALM      30.13R
VIDALIA*       PTCLDY    66  55  68 SE7       30.18F
WAYCROSS*      PTCLDY    68  63  83 SE8       30.17S
DOUGLAS*       CLEAR     66  54  63 SE5       30.17S
$$




USA.gov is the U.S. government's official web portal to all federal, state and local government web resources and services.